FW2362 Weather Reports


Display with metric or nautical units.
time (UTC)temp
F
wind
direction
speed
MPH
gust
MPH
rain 1hr
in
rain 24hr
in
rain mn
in
humidity
%
barometer
mb
20260505164535 64 295 15.0 26.0 0.00 0.00 0.00 62 1014.5
20260505163034 63 300 15.0 25.0 0.00 0.00 0.00 64 1014.5
20260505161531 63 299 15.0 25.0 0.00 0.00 0.00 65 1014.5
20260505153034 61 294 15.0 28.0 0.00 0.00 0.00 68 1014.2
20260505151533 61 296 14.0 25.0 0.00 0.00 0.00 69 1014.2
20260505124535 60 290 16.0 32.0 0.00 0.00 0.00 71 1012.5
20260505121534 60 291 16.0 34.0 0.00 0.00 0.00 70 1012.4
20260505120035 60 295 17.0 30.0 0.00 0.00 0.00 70 1012.3
20260505114534 61 288 15.0 29.0 0.00 0.00 0.00 70 1012.3
20260505113107 61 290 15.0 30.0 0.00 0.00 0.00 71 1012.2
20260505111607 61 287 16.0 31.0 0.00 0.00 0.00 70 1012.0
20260505101536 63 289 15.0 31.0 0.00 0.00 0.00 68 1011.3
20260505100108 63 289 16.0 32.0 0.00 0.00 0.00 67 1011.3
20260505094536 64 291 15.0 28.0 0.00 0.00 0.00 67 1011.2
20260505093042 64 290 15.0 28.0 0.00 0.00 0.00 66 1011.2
20260505093036 64 289 15.0 25.0 0.00 0.00 0.00 66 1011.2
20260505090036 65 287 12.0 28.0 0.00 0.00 0.00 66 1011.2
20260505083035 66 286 13.0 24.0 0.00 0.00 0.00 66 1011.1
20260505081536 66 288 13.0 29.0 0.00 0.00 0.00 66 1011.0
20260505080110 66 287 13.0 28.0 0.00 0.00 0.00 66 1010.9
20260505073032 66 282 11.0 25.0 0.00 0.00 0.00 67 1010.8
20260505070037 67 277 9.0 18.0 0.00 0.00 0.00 65 1010.7
20260505063033 68 273 10.0 19.0 0.00 0.00 0.00 63 1010.5
20260505061534 68 271 8.0 21.0 0.00 0.00 0.00 61 1010.4
20260505060036 69 269 10.0 21.0 0.00 0.00 0.00 60 1010.3
20260505054535 69 277 10.0 23.0 0.00 0.00 0.00 59 1010.2
20260505053034 69 283 10.0 21.0 0.00 0.00 0.00 57 1010.1
20260505051538 69 282 9.0 23.0 0.00 0.00 0.00 56 1010.0
20260505041535 71 266 9.0 24.0 0.00 0.00 0.00 51 1009.3
20260505040050 72 271 9.0 23.0 0.00 0.00 0.00 51 1009.0
20260505033035 72 274 10.0 22.0 0.00 0.00 0.00 50 1008.6
20260505031535 73 269 9.0 23.0 0.00 0.00 0.00 49 1008.5
20260505024536 75 273 9.0 17.0 0.00 0.00 0.00 47 1008.1
20260505023152 75 281 9.0 23.0 0.00 0.00 0.00 47 1008.1
20260505021535 76 281 10.0 23.0 0.00 0.00 0.00 46 1008.1
20260505014534 77 289 13.0 25.0 0.00 0.00 0.00 44 1007.9
20260505013032 78 288 12.0 22.0 0.00 0.00 0.00 44 1007.9
20260505011536 78 289 11.0 22.0 0.00 0.00 0.00 43 1007.8
20260505010037 79 293 14.0 26.0 0.00 0.00 0.00 42 1007.7
20260505004535 79 296 13.0 25.0 0.00 0.00 0.00 42 1007.7
20260505000035 80 299 13.0 23.0 0.00 0.00 0.00 40 1007.9
20260504234532 81 297 12.0 23.0 0.00 0.00 0.00 40 1007.9
20260504233036 81 301 12.0 28.0 0.00 0.00 0.00 40 1008.0
20260504231535 81 300 14.0 25.0 0.00 0.00 0.00 40 1008.0
20260504230030 81 302 14.0 24.0 0.00 0.00 0.00 40 1008.2
20260504224533 81 301 15.0 25.0 0.00 0.00 0.00 39 1008.3
20260504223035 81 299 14.0 23.0 0.00 0.00 0.00 39 1008.6
20260504220034 81 298 12.0 22.0 0.00 0.00 0.00 39 1008.9
20260504214611 81 297 12.0 22.0 0.00 0.00 0.00 39 1008.9
20260504213035 81 298 11.0 20.0 0.00 0.00 0.00 39 1009.2
20260504210030 81 300 11.0 19.0 0.00 0.00 0.00 39 1009.4
20260504204532 80 298 10.0 19.0 0.00 0.00 0.00 39 1009.5
20260504203032 80 296 11.0 20.0 0.00 0.00 0.00 39 1009.7
20260504201610 80 297 11.0 21.0 0.00 0.00 0.00 39 1009.8
20260504194535 79 299 12.0 20.0 0.00 0.00 0.00 40 1010.0
20260504193037 78 293 11.0 22.0 0.00 0.00 0.00 41 1010.1
20260504191534 78 294 11.0 21.0 0.00 0.00 0.00 42 1010.1
20260504190037 77 288 11.0 23.0 0.00 0.00 0.00 43 1010.3
20260504184537 76 294 12.0 25.0 0.00 0.00 0.00 44 1010.3
20260504183036 75 294 12.0 23.0 0.00 0.00 0.00 45 1010.4
20260504181532 75 291 12.0 26.0 0.00 0.00 0.00 45 1010.3
20260504180033 74 288 12.0 23.0 0.00 0.00 0.00 47 1010.5
20260504173141 72 288 12.0 24.0 0.00 0.00 0.00 49 1010.4
20260504171534 71 291 13.0 26.0 0.00 0.00 0.00 50 1010.6